Voltar ao catálogo

STARLINK-36466

AtivoComunicaçõesVLEO
NORAD 67358·PAYLOAD·🇺🇸 United States

Lançado Jan 9, 2026 de Cape Canaveral Space Force Station

Loading…

Próximas Passagens (próximas 24 horas)

TLE

AtualizadoSource: CelesTrak SupGP

Época: Sep 15, 2026, 02:59 UTC

1 67358C 26003AA  26258.12479167 -.00036266  00000+0 -13135-2 0  2587
2 67358  42.9995 236.9613 0001268 268.2982 274.1905 15.27598129    11

Acompanhe STARLINK-36466 em tempo real com AllMySat

Download on the App Store